GW4890 Weather Reports


Display with metric or nautical units.
time (UTC)temp
F
wind
direction
speed
MPH
gust
MPH
rain 1hr
in
rain 24hr
in
rain mn
in
humidity
%
barometer
mb
20260504050122 52 14 14.0 39.0 0.06 0.42 0.42 44 1009.3
20260504045122 52 344 14.0 33.0 0.00 0.36 0.36 43 1009.1
20260504044122 52 0 16.0 33.0 0.03 0.36 0.36 43 1009.0
20260504043143 52 359 17.0 43.0 0.03 0.36 0.36 44 1008.8
20260504042122 53 355 17.0 42.0 0.03 0.36 0.36 42 1008.5
20260504041124 53 23 13.0 34.0 0.14 0.36 0.36 43 1008.3
20260504040124 53 47 12.0 31.0 0.14 0.36 0.36 41 1008.3
20260504035123 53 58 13.0 32.0 0.14 0.36 0.36 38 1008.1
20260504034122 54 70 12.0 25.0 0.11 0.33 0.33 36 1007.7
20260504033122 54 77 13.0 31.0 0.11 0.33 0.33 36 1007.5
20260504032122 54 67 14.0 32.0 0.11 0.33 0.33 36 1007.2
20260504031123 55 83 10.0 23.0 0.00 0.22 0.22 35 1007.1
20260504030122 55 118 11.0 30.0 0.00 0.22 0.22 35 1007.1
20260504025123 56 71 12.0 30.0 0.00 0.22 0.22 35 1006.6
20260504024122 56 63 10.0 30.0 0.00 0.22 0.22 35 1006.5
20260504023124 57 98 7.0 22.0 0.00 0.22 0.22 34 1006.3
20260504022125 57 87 7.0 19.0 0.02 0.22 0.22 33 1006.3
20260504021123 58 90 9.0 22.0 0.04 0.22 0.22 33 1006.1
20260504020122 59 90 12.0 28.0 0.04 0.22 0.22 33 1006.1
20260504015122 59 65 13.0 30.0 0.04 0.22 0.22 32 1005.7
20260504014143 59 82 14.0 31.0 0.04 0.22 0.22 32 1005.4
20260504013122 60 90 13.0 32.0 0.04 0.22 0.22 31 1005.2
20260504012144 61 73 16.0 32.0 0.02 0.20 0.20 31 1004.9
20260504011123 63 65 12.0 26.0 0.00 0.18 0.18 31 1004.7
20260504010149 63 83 14.0 33.0 0.00 0.18 0.18 30 1004.7
20260504010143 63 81 14.0 33.0 0.00 0.18 0.18 30 1004.7
20260504005122 64 69 12.0 28.0 0.00 0.18 0.18 30 1004.7
20260504004122 64 54 13.0 29.0 0.00 0.18 0.18 30 1004.6
20260504003123 65 76 13.0 29.0 0.00 0.18 0.18 30 1004.5
20260504002122 66 2 13.0 32.0 0.00 0.18 0.18 29 1004.3
20260504001122 66 24 14.0 32.0 0.06 0.18 0.18 30 1004.2
20260504000122 67 12 15.0 40.0 0.07 0.18 0.18 29 1004.2
20260503235122 66 360 15.0 33.0 0.07 0.18 0.18 30 1004.1
20260503234122 66 47 15.0 40.0 0.07 0.18 0.18 30 1004.1
20260503233122 66 11 15.0 35.0 0.07 0.18 0.18 30 1004.0
20260503232122 66 22 15.0 36.0 0.07 0.18 0.18 29 1004.0
20260503231144 66 50 15.0 37.0 0.10 0.12 0.12 30 1004.0
20260503230123 67 67 14.0 33.0 0.11 0.11 0.11 28 1004.0
20260503225126 67 11 16.0 33.0 0.11 0.11 0.11 28 1004.0
20260503224122 67 7 15.0 37.0 0.11 0.11 0.11 29 1004.0
20260503223122 68 7 15.0 35.0 0.11 0.11 0.11 27 1003.9
20260503222122 69 87 15.0 32.0 0.11 0.11 0.11 26 1004.0
20260503221123 71 63 15.0 36.0 0.02 0.02 0.02 25 1003.9
20260503220122 72 74 13.0 32.0 0.00 0.00 0.00 24 1003.9
20260503215143 73 64 12.0 38.0 0.00 0.00 0.00 23 1003.9
20260503214143 72 61 11.0 32.0 0.00 0.00 0.00 23 1004.0
20260503213122 73 89 9.0 23.0 0.00 0.00 0.00 23 1004.0
20260503212122 73 28 11.0 27.0 0.00 0.00 0.00 23 1004.2
20260503211122 69 353 12.0 28.0 0.00 0.00 0.00 24 1004.3
20260503210122 73 62 9.0 20.0 0.00 0.00 0.00 22 1004.3
20260503205122 71 350 9.0 23.0 0.00 0.00 0.00 23 1004.4
20260503204122 69 68 8.0 19.0 0.00 0.00 0.00 24 1004.5
20260503203122 70 359 10.0 35.0 0.00 0.00 0.00 24 1004.6
20260503202122 69 355 12.0 29.0 0.00 0.00 0.00 24 1004.7
20260503201122 68 351 12.0 35.0 0.00 0.00 0.00 25 1004.9
20260503200122 70 30 11.0 26.0 0.00 0.00 0.00 24 1004.9
20260503195122 69 21 11.0 28.0 0.00 0.00 0.00 24 1005.0
20260503194143 69 33 10.0 28.0 0.00 0.00 0.00 25 1005.1
20260503193122 67 335 11.0 30.0 0.00 0.00 0.00 26 1005.4
20260503192123 67 348 12.0 32.0 0.00 0.00 0.00 27 1005.3
20260503191123 68 36 8.0 22.0 0.00 0.00 0.00 26 1005.5
20260503190123 68 342 10.0 28.0 0.00 0.00 0.00 25 1005.5
20260503185124 66 343 10.0 25.0 0.00 0.00 0.00 26 1005.5
20260503184124 66 341 14.0 29.0 0.00 0.00 0.00 26 1005.8
20260503183124 66 338 13.0 36.0 0.00 0.00 0.00 26 1005.9
20260503182124 65 329 13.0 29.0 0.00 0.00 0.00 26 1005.9
20260503181145 66 3 11.0 33.0 0.00 0.00 0.00 27 1006.0
20260503180124 65 337 15.0 38.0 0.00 0.00 0.00 28 1006.0
20260503175124 64 339 13.0 35.0 0.00 0.00 0.00 27 1006.1
20260503174124 65 53 12.0 30.0 0.00 0.00 0.00 27 1006.3
20260503173123 66 9 14.0 37.0 0.00 0.00 0.00 26 1006.4
20260503172124 64 320 18.0 39.0 0.00 0.00 0.00 28 1006.4
20260503171124 65 327 19.0 38.0 0.00 0.00 0.00 26 1006.5
20260503170124 66 326 15.0 33.0 0.00 0.00 0.00 25 1006.5
20260503160122 62 292 10.0 24.0 0.00 0.00 0.00 29 1006.9
20260503150123 56 309 8.0 20.0 0.00 0.00 0.00 37 1007.2
20260503140123 52 273 5.0 17.0 0.00 0.00 0.00 38 1007.3
20260503131123 48 272 7.0 14.0 0.00 0.00 0.00 41 1007.2
20260503130122 47 277 8.0 15.0 0.00 0.00 0.00 42 1007.2
20260503120122 47 279 11.0 22.0 0.00 0.00 0.00 40 1007.3
20260503110123 47 271 10.0 20.0 0.00 0.00 0.00 39 1007.6
20260503100123 48 285 10.0 20.0 0.00 0.00 0.00 38 1007.8
20260503090123 49 268 8.0 15.0 0.00 0.00 0.00 35 1007.7
20260503081122 49 291 9.0 19.0 0.00 0.00 0.00 36 1007.7
20260503080144 49 294 9.0 17.0 0.00 0.00 0.00 36 1007.7
20260503072123 47 315 6.0 13.0 0.00 0.00 0.00 41 1007.7
20260503071123 48 302 4.0 9.0 0.00 0.00 0.00 41 1007.7
20260503070143 48 288 4.0 9.0 0.00 0.00 0.00 39 1007.7
20260503060122 50 280 4.0 9.0 0.00 0.00 0.00 38 1007.6
20260503055122 51 259 5.0 14.0 0.00 0.00 0.00 36 1007.5
20260503054143 51 240 6.0 12.0 0.00 0.00 0.00 37 1007.6
20260503053122 53 247 5.0 11.0 0.00 0.00 0.00 34 1007.5
20260503052123 55 244 4.0 8.0 0.00 0.00 0.00 34 1007.6